This is the latest recevied weather packets stored in our database for station/object KQ4PPF. If no packets are shown the sender has not sent any weather packets the latest 10 day(s).
| Time | Temp. | Humidity | Pressure | Rain* | Wind** | Luminosity | Snow |
|---|---|---|---|---|---|---|---|
| 1777331060 | 23.89° C | 59% | 1015.7 hPa | 0 mm | - | 20 W/m² | - |
| 1777330757 | 23.89° C | 59% | 1016.1 hPa | 0 mm | - | 21 W/m² | - |
| 1777330454 | 23.89° C | 59% | 1015.9 hPa | 0 mm | - | 28 W/m² | - |
| 1777330152 | 23.89° C | 59% | 1015.9 hPa | 0 mm | - | 23 W/m² | - |
| 1777329850 | 23.89° C | 59% | 1016 hPa | 0 mm | - | 23 W/m² | - |
| 1777329548 | 23.89° C | 59% | 1016.1 hPa | 0 mm | - | 24 W/m² | - |
| 1777329240 | 24.44° C | 59% | 1016 hPa | 0 mm | - | 25 W/m² | - |
| 1777328937 | 24.44° C | 59% | 1016.2 hPa | 0 mm | - | 25 W/m² | - |
| 1777328635 | 24.44° C | 59% | 1016.4 hPa | 0 mm | - | 26 W/m² | - |
| 1777328333 | 24.44° C | 59% | 1016.3 hPa | 0 mm | - | 28 W/m² | - |
| 1777328031 | 24.44° C | 59% | 1016.3 hPa | 0 mm | - | 27 W/m² | - |
| 1777327729 | 24.44° C | 59% | 1016.3 hPa | 0 mm | - | 28 W/m² | - |
| 1777327426 | 24.44° C | 58% | 1016.3 hPa | 0 mm | - | 32 W/m² | - |
| 1777327123 | 24.44° C | 58% | 1016.3 hPa | 0 mm | - | 102 W/m² | - |
| 1777326819 | 24.44° C | 58% | 1016.3 hPa | 0 mm | - | 185 W/m² | - |
| 1777326517 | 24.44° C | 59% | 1016.3 hPa | 0 mm | - | 29 W/m² | - |
| 1777326215 | 24.44° C | 58% | 1016.1 hPa | 0 mm | - | 29 W/m² | - |
| 1777325912 | 24.44° C | 59% | 1016.3 hPa | 0 mm | - | 30 W/m² | - |
| 1777325611 | 24.44° C | 58% | 1016.4 hPa | 0 mm | - | 30 W/m² | - |
| 1777325308 | 24.44° C | 58% | 1016.4 hPa | 0 mm | - | 30 W/m² | - |
| 1777325006 | 24.44° C | 58% | 1016.8 hPa | 0 mm | - | 42 W/m² | - |
| 1777324702 | 24.44° C | 58% | 1016.9 hPa | 0 mm | - | 31 W/m² | - |
| 1777324400 | 24.44° C | 59% | 1016.8 hPa | 0 mm | - | 32 W/m² | - |
| 1777324097 | 24.44° C | 58% | 1016.8 hPa | 0 mm | - | 32 W/m² | - |
| 1777323795 | 24.44° C | 59% | 1016.8 hPa | 0 mm | - | 33 W/m² | - |
* Rain latest hour (hover to see other rain measurements)
** Current wind speed in m/s (hover to see current wind gust speed)